Weather History for Lebanon, NH

Change the Weather History Date:

Thursday, May 23, 2013

  Actual Average Record
Temperature  
Mean Temperature 65 °F -  
Max Temperature 79 °F 73 °F 91 °F (1964)
Min Temperature 55 °F 45 °F 28 °F (1935)
Growing Degree Days 15 (Base 50)    
Moisture  
Dew Point 61 °F    
Average Humidity 82    
Maximum Humidity 94    
Minimum Humidity 69    
Precipitation  
Precipitation 0.02 in - - ()
Sea Level Pressure  
Sea Level Pressure 29.78 in    
Wind  
Wind Speed 8 mph (SSE)    
Max Wind Speed 16 mph    
Max Gust Speed 24 mph    
Visibility 9 miles    
Events Rain , Thunderstorm    
Averages and records for this station are not official NWS values.
T = Trace of Precipitation, MM = Missing Value Source: NWS Daily Summary

Daily Weather History Graph

Daily Weather History Graph

Search for Another Location

Airport:

Trip Planner

Search our weather history database for the weather conditions in past years. The results will help you decide how hot, cold, wet, or windy it might be!

Date:

Astronomy

May. 23, 2013 Rise Set
Actual Time 5:16 AM EDT 8:16 PM EDT
Civil Twilight 4:42 AM EDT 8:50 PM EDT
Nautical Twilight 3:59 AM EDT 9:33 PM EDT
Astronomical Twilight 3:07 AM EDT 10:25 PM EDT
Moon 6:42 PM EDT (5/23) 4:02 AM EDT (5/23)
Length of Visible Light 16h 07m
Length of Day
14h 59m
Waxing Gibbous, 97% of the Moon is Illuminated
May 23
Waxing Gibbous
May 25
Full
May 31
Last Quarter
Jun 8
New
Jun 16
First Quarter

Hourly Weather History & Observations

Time (EDT) Temp. Dew Point Humidity Pressure Visibility Wind Dir Wind Speed Gust Speed Precip Events Conditions
12:53 AM 57.9 °F 55.9 °F 93% 29.84 in 9.0 mi Calm Calm - N/A   Overcast
1:53 AM 57.9 °F 55.9 °F 93% 29.82 in 10.0 mi NE 4.6 mph - N/A   Overcast
2:15 AM 57.2 °F 55.4 °F 94% 29.82 in 10.0 mi NE 6.9 mph - N/A   Overcast
2:53 AM 57.0 °F 54.0 °F 89% 29.81 in 10.0 mi NE 6.9 mph - N/A   Overcast
3:53 AM 55.9 °F 54.0 °F 93% 29.81 in 10.0 mi NE 8.1 mph - N/A   Overcast
4:53 AM 55.9 °F 54.0 °F 93% 29.81 in 7.0 mi NE 8.1 mph - N/A   Overcast
5:53 AM 55.9 °F 54.0 °F 93% 29.82 in 4.0 mi NE 5.8 mph - N/A   Overcast
6:13 AM 55.4 °F 53.6 °F 94% 29.84 in 3.0 mi Calm Calm - N/A   Overcast
6:53 AM 57.0 °F 54.0 °F 89% 29.83 in 3.0 mi NE 4.6 mph - N/A   Overcast
7:53 AM 59.0 °F 55.0 °F 87% 29.83 in 3.0 mi NE 6.9 mph - N/A   Overcast
8:07 AM 60.8 °F 55.4 °F 82% 29.84 in 10.0 mi NE 5.8 mph - N/A   Overcast
8:53 AM 62.1 °F 57.0 °F 84% 29.83 in 10.0 mi NE 6.9 mph - N/A   Overcast
9:11 AM 62.6 °F 57.2 °F 82% 29.84 in 10.0 mi NE 5.8 mph - N/A   Overcast
9:53 AM 68.0 °F 61.0 °F 78% 29.80 in 10.0 mi NE 5.8 mph - N/A   Scattered Clouds
10:03 AM 69.8 °F 60.8 °F 73% 29.82 in 10.0 mi Variable 3.5 mph - N/A   Mostly Cloudy
10:14 AM 69.8 °F 62.6 °F 78% 29.83 in 10.0 mi Variable 3.5 mph - N/A   Scattered Clouds
10:53 AM 73.9 °F 64.9 °F 73% 29.79 in 10.0 mi South 10.4 mph 18.4 mph N/A   Scattered Clouds
11:53 AM 75.9 °F 64.9 °F 69% 29.78 in 10.0 mi South 12.7 mph - N/A   Scattered Clouds
12:53 PM 75.9 °F 66.0 °F 71% 29.77 in 9.0 mi SSW 9.2 mph - 0.00 in Rain Light Rain
1:00 PM 75.2 °F 66.2 °F 73% 29.79 in 10.0 mi SSW 11.5 mph - 0.00 in   Overcast
1:36 PM 75.2 °F 66.2 °F 73% 29.78 in 10.0 mi South 16.1 mph 24.2 mph 0.00 in Thunderstorm Overcast
1:51 PM 75.2 °F 66.2 °F 73% 29.78 in 10.0 mi South 13.8 mph 23.0 mph 0.00 in   Overcast
1:53 PM 75.0 °F 66.9 °F 76% 29.75 in 10.0 mi South 15.0 mph 23.0 mph 0.00 in   Overcast
2:53 PM 75.0 °F 66.9 °F 76% 29.75 in 10.0 mi South 16.1 mph - N/A   Overcast
3:53 PM 73.9 °F 64.9 °F 73% 29.76 in 10.0 mi SSW 13.8 mph - N/A   Overcast
4:53 PM 72.0 °F 66.0 °F 81% 29.75 in 10.0 mi South 11.5 mph - 0.02 in   Mostly Cloudy
5:53 PM 71.1 °F 64.9 °F 81% 29.75 in 10.0 mi SSW 15.0 mph 23.0 mph N/A   Overcast
6:53 PM 70.0 °F 64.0 °F 81% 29.75 in 10.0 mi South 13.8 mph 21.9 mph N/A   Overcast
7:50 PM 69.8 °F 64.4 °F 83% 29.77 in 10.0 mi South 13.8 mph - N/A   Overcast
7:53 PM 70.0 °F 64.0 °F 81% 29.75 in 10.0 mi South 12.7 mph - N/A   Overcast
8:04 PM 69.8 °F 64.4 °F 83% 29.77 in 10.0 mi South 11.5 mph - N/A   Overcast
8:13 PM 69.8 °F 64.4 °F 83% 29.76 in 10.0 mi South 15.0 mph 20.7 mph N/A   Overcast
8:39 PM 69.8 °F 64.4 °F 83% 29.77 in 10.0 mi South 11.5 mph 19.6 mph 0.00 in   Overcast
8:53 PM 69.1 °F 63.0 °F 81% 29.75 in 10.0 mi South 15.0 mph 24.2 mph 0.00 in   Overcast
9:16 PM 68.0 °F 64.4 °F 88% 29.76 in 10.0 mi South 11.5 mph 20.7 mph 0.00 in Rain Light Rain
9:37 PM 68.0 °F 62.6 °F 83% 29.76 in 10.0 mi SSW 9.2 mph - 0.00 in   Overcast
9:53 PM 68.0 °F 63.0 °F 84% 29.73 in 10.0 mi South 10.4 mph - 0.00 in   Overcast
10:36 PM 68.0 °F 62.6 °F 83% 29.75 in 10.0 mi South 11.5 mph - N/A   Overcast
10:53 PM 68.0 °F 63.0 °F 84% 29.73 in 10.0 mi South 12.7 mph 20.7 mph N/A   Overcast
11:53 PM 66.9 °F 63.0 °F 87% 29.70 in 10.0 mi South 11.5 mph - N/A   Mostly Cloudy